Location: Unspecified
(0.0000°N, 0.0000°E)
Time: 15:32:30
(UTC+00:00)

Vanguard 2 Rocket - All Passes

Search period start: 16 January 2018 00:00
Search period end: 26 January 2018 00:00
Orbit: 556 x 3326 km, 32.9° (Epoch: 15 January)

Date Brightness Start Highest point End Pass type
(mag) Time Alt. Az. Time Alt. Az. Time Alt. Az.
16 Jan - 02:05:49 10° SSW 02:22:26 30° SSE 02:36:20 10° ESE visible
16 Jan - 04:23:40 10° SW 04:42:41 63° SSE 04:54:33 10° ENE visible
16 Jan - 06:44:10 10° WSW 06:58:48 49° NW 07:07:17 10° NNE daylight
16 Jan - 15:57:51 10° NNW 16:01:58 25° NE 16:07:50 10° E daylight
16 Jan - 18:08:54 10° WNW 18:15:17 59° SSW 18:26:45 10° SE daylight
16 Jan - 20:24:38 10° WSW 20:32:37 24° SSW 20:44:09 10° SSE visible
16 Jan - 22:45:15 10° SW 22:54:38 17° S 23:05:38 10° SE visible
17 Jan - 01:04:17 10° SSW 01:19:07 25° SSE 01:33:12 10° ESE visible
17 Jan - 03:21:34 10° SW 03:40:46 50° SSE 03:54:15 10° E visible
17 Jan - 05:40:47 10° WSW 05:58:27 72° NW 06:08:39 10° NE visible
17 Jan - 08:05:30 10° W 08:13:02 18° NW 08:18:32 10° N daylight
17 Jan - 15:02:02 10° NNE 15:02:53 10° NE 15:03:46 10° NE daylight
17 Jan - 17:10:04 10° NW 17:15:30 89° SW 17:25:09 10° SE daylight
17 Jan - 19:24:12 10° WSW 19:31:14 28° SSW 19:42:10 10° SSE visible
17 Jan - 21:43:30 10° SW 21:51:25 16° S 22:01:16 10° SSE visible
18 Jan - 00:02:59 10° SSW 00:15:29 20° SSE 00:28:42 10° SE visible
18 Jan - 02:19:53 10° SW 02:38:17 40° SSE 02:53:04 10° E visible
18 Jan - 04:37:56 10° SW 04:57:28 86° SE 05:09:28 10° NE visible
18 Jan - 07:00:20 10° W 07:13:03 32° NW 07:21:06 10° NNE daylight
18 Jan - 16:11:39 10° NW 16:16:15 50° NE 16:23:36 10° ESE daylight
18 Jan - 18:24:22 10° W 18:30:30 35° SSW 18:40:38 10° SE visible
18 Jan - 20:42:04 10° SW 20:48:54 17° S 20:57:53 10° SSE visible
18 Jan - 23:01:55 10° SSW 23:11:49 17° S 23:23:07 10° SE visible
19 Jan - 01:18:36 10° SSW 01:35:21 32° SSE 01:50:44 10° E visible
19 Jan - 03:35:37 10° SW 03:55:49 68° SE 04:09:37 10° ENE visible
19 Jan - 05:56:06 10° WSW 06:12:44 50° NW 06:22:49 10° NE daylight
19 Jan - 08:25:42 10° NW 08:27:52 11° NW 08:29:50 10° NNW daylight
19 Jan - 15:13:47 10° NNW 15:17:18 23° NE 15:21:54 10° E daylight
19 Jan - 17:25:01 10° WNW 17:30:22 48° SSW 17:39:26 10° SE daylight
19 Jan - 19:41:05 10° SW 19:47:10 19° SSW 19:55:33 10° SSE visible
19 Jan - 22:01:00 10° SSW 22:08:25 15° S 22:17:15 10° SE visible
20 Jan - 00:17:43 10° SSW 00:32:06 25° SSE 00:46:59 10° ESE visible
20 Jan - 02:33:51 10° SW 02:53:37 54° SSE 03:09:01 10° ENE visible
20 Jan - 04:52:39 10° WSW 05:11:55 70° NW 05:23:57 10° NE visible
20 Jan - 07:17:41 10° W 07:27:32 21° NW 07:34:30 10° N daylight
20 Jan - 16:26:07 10° WNW 16:30:47 79° SW 16:38:28 10° SE daylight
20 Jan - 18:40:39 10° WSW 18:46:06 22° SSW 18:54:03 10° SSE visible
20 Jan - 21:00:08 10° SSW 21:05:36 13° S 21:12:10 10° SSE visible
20 Jan - 23:17:15 10° SSW 23:28:43 20° SSE 23:41:42 10° ESE visible
21 Jan - 01:32:37 10° SW 01:50:59 42° SSE 02:07:25 10° E visible
21 Jan - 03:49:56 10° SW 04:10:30 89° SE 04:24:27 10° NE visible
21 Jan - 06:12:18 10° W 06:27:04 35° NW 06:36:40 10° NNE daylight
21 Jan - 15:27:35 10° NW 15:31:40 52° NE 15:37:35 10° ESE daylight
21 Jan - 17:40:43 10° W 17:45:38 27° SSW 17:53:08 10° SSE daylight
21 Jan - 19:59:11 10° SSW 20:03:28 13° S 20:08:40 10° SSE visible
21 Jan - 22:17:11 10° SSW 22:25:26 16° SSE 22:35:09 10° SE visible
22 Jan - 00:31:54 10° SSW 00:48:05 33° SSE 01:04:34 10° E visible
22 Jan - 02:47:56 10° SW 03:08:30 71° SE 03:24:18 10° ENE visible
22 Jan - 05:08:01 10° WSW 05:26:14 51° NW 05:38:04 10° NE visible
22 Jan - 07:36:49 10° WNW 07:42:29 13° NW 07:47:06 10° N daylight
22 Jan - 14:29:32 10° NNW 14:32:44 23° NE 14:36:32 10° E daylight
22 Jan - 16:41:14 10° W 16:45:42 38° SSW 16:52:37 10° SE daylight
22 Jan - 18:58:13 10° SW 19:02:03 13° S 19:06:47 10° SSE visible
22 Jan - 21:17:38 10° SSW 21:22:29 12° S 21:28:06 10° SSE visible
22 Jan - 23:31:41 10° SSW 23:45:05 25° SSE 00:00:12 10° ESE visible
23 Jan - 01:46:36 10° SW 02:06:06 56° SSE 02:23:19 10° ENE visible
23 Jan - 04:04:43 10° WSW 04:24:55 69° NW 04:38:53 10° NE visible
23 Jan - 06:29:39 10° W 06:41:41 24° NW 06:50:12 10° NNE daylight
23 Jan - 15:42:08 10° WNW 15:46:17 66° SSW 15:52:19 10° SE daylight
23 Jan - 17:57:32 10° SW 18:01:15 15° SSW 18:06:05 10° SSE daylight
23 Jan - 22:32:01 10° SSW 22:42:06 19° SSE 22:54:10 10° ESE visible
24 Jan - 00:45:52 10° SW 01:03:29 44° SSE 01:21:15 10° E visible
24 Jan - 03:02:19 10° SW 03:23:05 88° NW 03:39:05 10° NE visible
24 Jan - 05:24:15 10° W 05:40:40 36° NW 05:51:57 10° NNE visible
24 Jan - 14:43:23 10° NW 14:47:15 57° NE 14:52:07 10° ESE daylight
24 Jan - 16:57:16 10° WSW 17:00:59 19° SSW 17:06:02 10° SSE daylight
24 Jan - 21:33:07 10° S 21:39:19 14° SSE 21:46:37 10° SE visible
24 Jan - 23:45:43 10° SSW 00:00:48 33° SSE 00:17:51 10° E visible
25 Jan - 02:00:44 10° SW 02:20:50 74° SE 02:38:32 10° ENE visible
25 Jan - 04:20:08 10° WSW 04:39:18 51° NW 04:53:00 10° NE visible
25 Jan - 06:48:26 10° WNW 06:56:48 16° NNW 07:03:21 10° N daylight
25 Jan - 13:45:00 10° NNW 13:48:17 24° NE 13:51:44 10° E daylight
25 Jan - 15:57:28 10° W 16:01:13 28° SSW 16:06:18 10° SSE daylight
25 Jan - 22:46:09 10° SSW 22:58:12 25° SSE 23:12:53 10° ESE visible
